Weather History for KDHT - March, 2013

Change the Weather History Date:

Saturday, March 9, 2013

  Actual Average Record
Temperature  
Mean Temperature 47 °F 44 °F  
Max Temperature 60 °F 59 °F 85 °F (1989)
Min Temperature 34 °F 28 °F 8 °F (2002)
Degree Days  
Heating Degree Days 18 22  
Month to date heating degree days 148 205  
Since 1 July heating degree days 3473 3848  
Cooling Degree Days 0 0  
Month to date cooling degree days 0 0  
Year to date cooling degree days 0 0  
Moisture  
Dew Point 29 °F    
Average Humidity 50    
Maximum Humidity 86    
Minimum Humidity 14    
Precipitation  
Precipitation T in 0.03 in 0.37 in (1974)
Month to date precipitation 0.05 0.25  
Year to date precipitation 0.85 1.17  
Snow  
Snow 0.30 in 0.20 in 0.50 in (1987)
Month to date snowfall 0.3 1.1  
Since 1 July snowfall 18.6 14.6  
Snow Depth 0.00 in    
Sea Level Pressure  
Sea Level Pressure 29.69 in    
Wind  
Wind Speed 23 mph (West)    
Max Wind Speed 38 mph    
Max Gust Speed 52 mph    
Visibility 8 miles    
Events Snow    
T = Trace of Precipitation, MM = Missing Value Source: NWS Daily Summary

Daily Weather History Graph

Daily Weather History Graph

Search for Another Location

Airport or City:

Trip Planner

Search our weather history database for the weather conditions in past years. The results will help you decide how hot, cold, wet, or windy it might be!

Date:

Astronomy

Mar. 09, 2013 Rise Set
Actual Time 7:09 AM CST 6:52 PM CST
Civil Twilight 6:43 AM CST 7:18 PM CST
Nautical Twilight 6:13 AM CST 7:47 PM CST
Astronomical Twilight 5:44 AM CST 8:17 PM CST
Moon 5:31 AM CST (3/9) 4:59 PM CST (3/9)
Length of Visible Light 12h 34m
Length of Day
11h 43m
Waning Crescent, 5% of the Moon is Illuminated
Mar 9
Waning Crescent
Mar 11
New
Mar 19
First Quarter
Mar 27
Full
Apr 2
Last Quarter

Hourly Weather History & Observations

Time (CST) Temp. Windchill Dew Point Humidity Pressure Visibility Wind Dir Wind Speed Gust Speed Precip Events Conditions
12:53 AM 48.9 °F - 45.0 °F 86% 29.64 in 10.0 mi South 9.2 mph - N/A   Overcast
1:53 AM 50.0 °F - 45.0 °F 83% 29.63 in 10.0 mi South 11.5 mph - 0.00 in   Mostly Cloudy
2:53 AM 48.9 °F - 44.1 °F 83% 29.61 in 10.0 mi SSW 8.1 mph - N/A   Scattered Clouds
3:53 AM 48.0 °F - 44.1 °F 86% 29.60 in 10.0 mi SSW 13.8 mph - N/A   Mostly Cloudy
4:53 AM 48.9 °F - 39.0 °F 69% 29.57 in 10.0 mi SSW 18.4 mph - N/A   Overcast
5:53 AM 50.0 °F - 37.9 °F 63% 29.56 in 10.0 mi SSW 24.2 mph - N/A   Overcast
6:53 AM 46.0 °F 39.0 °F 37.0 °F 71% 29.56 in 10.0 mi SW 17.3 mph - N/A   Clear
7:53 AM 46.9 °F - 34.0 °F 61% 29.59 in 10.0 mi SW 23.0 mph 29.9 mph N/A   Clear
8:53 AM 48.9 °F - 33.1 °F 54% 29.60 in 10.0 mi SW 26.5 mph - N/A   Clear
9:53 AM 54.0 °F - 27.0 °F 35% 29.59 in 10.0 mi SW 27.6 mph 34.5 mph N/A   Clear
10:53 AM 57.0 °F - 21.9 °F 26% 29.58 in 10.0 mi SW 32.2 mph 42.6 mph N/A   Clear
11:53 AM 57.9 °F - 17.1 °F 20% 29.56 in 10.0 mi SW 31.1 mph 39.1 mph N/A   Clear
12:53 PM 59.0 °F - 16.0 °F 19% 29.55 in 10.0 mi SW 32.2 mph 41.4 mph N/A   Clear
1:53 PM 59.0 °F - 10.9 °F 15% 29.52 in 10.0 mi WSW 31.1 mph 39.1 mph N/A   Clear
2:53 PM 60.1 °F - 10.9 °F 14% 29.49 in 10.0 mi SW 25.3 mph 38.0 mph N/A   Clear
3:53 PM 57.0 °F - 10.0 °F 15% 29.51 in 10.0 mi SW 25.3 mph 39.1 mph N/A   Clear
4:53 PM 55.9 °F - 15.1 °F 20% 29.53 in 10.0 mi SW 31.1 mph 38.0 mph N/A   Clear
5:42 PM 48.2 °F - 30.2 °F 50% 29.66 in 7.0 mi North - - N/A   Scattered Clouds
5:53 PM 48.0 °F - 30.9 °F 52% 29.62 in - North - - N/A   Unknown
6:53 PM 39.0 °F 29.0 °F 30.9 °F 73% 29.71 in 10.0 mi NW 20.7 mph 31.1 mph N/A   Unknown
7:25 PM 39.2 °F 29.8 °F 30.2 °F 70% 29.76 in 10.0 mi NNW 18.4 mph - N/A   Mostly Cloudy
7:53 PM 39.0 °F 28.5 °F 27.0 °F 62% 29.75 in 10.0 mi NNW 23.0 mph 35.7 mph N/A   Mostly Cloudy
8:53 PM 37.9 °F 27.9 °F 27.0 °F 65% 29.79 in 10.0 mi NNW 19.6 mph 27.6 mph N/A   Partly Cloudy
9:43 PM 37.4 °F 25.9 °F 28.4 °F 70% 29.86 in 4.0 mi NNW 25.3 mph 31.1 mph 0.00 in Snow Light Snow
9:53 PM 36.0 °F 23.2 °F 30.0 °F 79% 29.83 in 5.0 mi North 28.8 mph 38.0 mph 0.00 in Snow Light Snow
10:05 PM 35.6 °F 23.4 °F 30.2 °F 81% 29.87 in 10.0 mi NNW 25.3 mph 36.8 mph 0.00 in   Overcast
10:46 PM 35.6 °F 24.2 °F 30.2 °F 81% 29.88 in 2.5 mi North 21.9 mph 27.6 mph 0.00 in Snow Light Snow
10:53 PM 35.1 °F 22.7 °F 30.0 °F 82% 29.84 in 2.5 mi North 25.3 mph 34.5 mph 0.00 in Snow Light Snow
11:06 PM 35.6 °F 23.2 °F 30.2 °F 81% 29.89 in 1.8 mi NNW 26.5 mph 39.1 mph 0.00 in Snow Light Snow
11:22 PM 35.6 °F 23.2 °F 30.2 °F 81% 29.89 in 2.0 mi NNW 26.5 mph 40.3 mph 0.00 in Snow Light Snow
11:30 PM 35.6 °F 22.3 °F 28.4 °F 75% 29.90 in 4.0 mi NNW 31.1 mph 44.9 mph 0.00 in Snow Light Snow
11:35 PM 35.6 °F 22.3 °F 30.2 °F 81% 29.90 in 3.0 mi NNW 31.1 mph 42.6 mph 0.00 in Snow Light Snow
11:53 PM 35.1 °F 21.6 °F 28.9 °F 78% 29.85 in 9.0 mi NNW 31.1 mph 46.0 mph 0.00 in Snow Light Snow